Location: Songkhla
(7.2000°N, 100.6000°E)
Time: 03:15:55
(UTC+07:00)

BRICSAT 2 - Pass Details

Date: 22 June 2021
Orbit: 295 x 638 km, 28.5° (Epoch: 28 July)

Event Time Altitude Azimuth Distance (km) Brightness Sun altitude
Rises 19:20:46 0° 315° (NW) 2,438 ? -10.9°
Reaches altitude 10° 19:23:00 10° 327° (NNW) 1,635 ? -11.4°
Maximum altitude 19:26:21 29° 29° (NNE) 960 ? -12.2°
Enters shadow 19:29:09 15° 83° (E) 1,527 ? -12.8°
Drops below altitude 10° 19:30:04 10° 90° (E) 1,834 - -13.0°
Sets 19:32:43 0° 101° (E) 2,796 - -13.6°
